Year,Month,Day,Hour,Minute,Value (Times are PST for windspeed in km/hr)
2007,05,07,00,00,1.00
2007,05,07,00,01,0.30
2007,05,07,00,02,0.10
2007,05,07,00,03,0.40
2007,05,07,00,04,0.40
2007,05,07,00,05,2.90
2007,05,07,00,06,1.50
2007,05,07,00,07,1.30
2007,05,07,00,08,4.40
2007,05,07,00,09,4.80
2007,05,07,00,10,2.80
2007,05,07,00,11,3.00
2007,05,07,00,12,2.60
2007,05,07,00,13,1.90
2007,05,07,00,14,2.20
2007,05,07,00,15,1.80
2007,05,07,00,16,1.90
2007,05,07,00,17,4.30
2007,05,07,00,18,3.40
2007,05,07,00,19,4.60
2007,05,07,00,20,1.20
2007,05,07,00,21,2.40
2007,05,07,00,22,0.70
2007,05,07,00,23,0.90
2007,05,07,00,24,0.60
2007,05,07,00,25,2.10
2007,05,07,00,26,2.40
2007,05,07,00,27,3.10
2007,05,07,00,28,3.40
2007,05,07,00,29,2.50
2007,05,07,00,30,0.70
2007,05,07,00,31,0.40
2007,05,07,00,32,0.40
2007,05,07,00,33,1.50
2007,05,07,00,34,2.50
2007,05,07,00,35,0.40
2007,05,07,00,36,0.90
2007,05,07,00,37,3.20
2007,05,07,00,38,2.90
2007,05,07,00,39,1.30
2007,05,07,00,40,0.00
2007,05,07,00,41,0.40
2007,05,07,00,42,0.40
2007,05,07,00,43,0.90
2007,05,07,00,44,1.70
2007,05,07,00,45,3.40
2007,05,07,00,46,1.90
2007,05,07,00,47,3.30
2007,05,07,00,48,3.20
2007,05,07,00,49,0.60
2007,05,07,00,50,1.90
2007,05,07,00,51,3.40
2007,05,07,00,52,3.30
2007,05,07,00,53,0.60
2007,05,07,00,54,0.70
2007,05,07,00,55,0.40
2007,05,07,00,56,2.70
2007,05,07,00,57,3.60
2007,05,07,00,58,4.00
2007,05,07,00,59,4.80
2007,05,07,01,00,4.80
2007,05,07,01,01,1.30
2007,05,07,01,02,1.20
2007,05,07,01,03,1.30
2007,05,07,01,04,2.80
2007,05,07,01,05,2.90
2007,05,07,01,06,3.90
2007,05,07,01,07,3.40
2007,05,07,01,08,1.10
2007,05,07,01,09,2.00
2007,05,07,01,10,0.00
2007,05,07,01,11,0.10
2007,05,07,01,12,2.10
2007,05,07,01,13,2.30
2007,05,07,01,14,1.90
2007,05,07,01,15,0.10
2007,05,07,01,16,1.80
2007,05,07,01,17,1.20
2007,05,07,01,18,0.70
2007,05,07,01,19,5.00
2007,05,07,01,20,3.20
2007,05,07,01,21,4.00
2007,05,07,01,22,1.10
2007,05,07,01,23,1.00
2007,05,07,01,24,0.50
2007,05,07,01,25,2.40
2007,05,07,01,26,3.20
2007,05,07,01,27,0.80
2007,05,07,01,28,0.10
2007,05,07,01,29,1.30
2007,05,07,01,30,0.70
2007,05,07,01,31,2.20
2007,05,07,01,32,4.10
2007,05,07,01,33,1.90
2007,05,07,01,34,1.60
2007,05,07,01,35,1.50
2007,05,07,01,36,1.60
2007,05,07,01,37,3.60
2007,05,07,01,38,5.40
2007,05,07,01,39,3.80
2007,05,07,01,40,5.90
2007,05,07,01,41,6.10
2007,05,07,01,42,6.40
2007,05,07,01,43,5.20
2007,05,07,01,44,5.60
2007,05,07,01,45,6.00
2007,05,07,01,46,5.40
2007,05,07,01,47,3.40
2007,05,07,01,48,6.60
2007,05,07,01,49,7.10
2007,05,07,01,50,6.70
2007,05,07,01,51,4.00
2007,05,07,01,52,3.60
2007,05,07,01,53,6.00
2007,05,07,01,54,3.20
2007,05,07,01,55,3.40
2007,05,07,01,56,4.60
2007,05,07,01,57,2.80
2007,05,07,01,58,2.60
2007,05,07,01,59,1.60
2007,05,07,02,00,2.10
2007,05,07,02,01,3.10
2007,05,07,02,02,0.20
2007,05,07,02,03,0.00
2007,05,07,02,04,0.00
2007,05,07,02,05,1.30
2007,05,07,02,06,0.00
2007,05,07,02,07,0.80
2007,05,07,02,08,2.00
2007,05,07,02,09,3.60
2007,05,07,02,10,3.80
2007,05,07,02,11,3.10
2007,05,07,02,12,1.30
2007,05,07,02,13,3.30
2007,05,07,02,14,0.50
2007,05,07,02,15,0.00
2007,05,07,02,16,0.10
2007,05,07,02,17,0.60
2007,05,07,02,18,0.60
2007,05,07,02,19,1.20
2007,05,07,02,20,0.30
2007,05,07,02,21,0.90
2007,05,07,02,22,4.80
2007,05,07,02,23,3.60
2007,05,07,02,24,2.10
2007,05,07,02,25,1.10
2007,05,07,02,26,2.40
2007,05,07,02,27,4.80
2007,05,07,02,28,3.20
2007,05,07,02,29,2.90
2007,05,07,02,30,3.60
2007,05,07,02,31,5.30
2007,05,07,02,32,3.00
2007,05,07,02,33,3.20
2007,05,07,02,34,3.00
2007,05,07,02,35,2.60
2007,05,07,02,36,3.10
2007,05,07,02,37,4.40
2007,05,07,02,38,4.20
2007,05,07,02,39,1.60
2007,05,07,02,40,1.70
2007,05,07,02,41,3.00
2007,05,07,02,42,3.00
2007,05,07,02,43,0.70
2007,05,07,02,44,3.90
2007,05,07,02,45,2.30
2007,05,07,02,46,3.50
2007,05,07,02,47,2.70
2007,05,07,02,48,1.70
2007,05,07,02,49,3.00
2007,05,07,02,50,2.40
2007,05,07,02,51,2.60
2007,05,07,02,52,1.50
2007,05,07,02,53,1.10
2007,05,07,02,54,0.10
2007,05,07,02,55,0.00
2007,05,07,02,56,0.00
2007,05,07,02,57,0.20
2007,05,07,02,58,2.40
2007,05,07,02,59,2.20
2007,05,07,03,00,0.70
2007,05,07,03,01,0.60
2007,05,07,03,02,0.90
2007,05,07,03,03,0.00
2007,05,07,03,04,0.00
2007,05,07,03,05,0.80
2007,05,07,03,06,0.60
2007,05,07,03,07,0.00
2007,05,07,03,08,0.40
2007,05,07,03,09,0.80
2007,05,07,03,10,1.50
2007,05,07,03,11,1.90
2007,05,07,03,12,1.80
2007,05,07,03,13,1.50
2007,05,07,03,14,1.80
2007,05,07,03,15,2.00
2007,05,07,03,16,0.10
2007,05,07,03,17,0.20
2007,05,07,03,18,0.10
2007,05,07,03,19,0.80
2007,05,07,03,20,2.00
2007,05,07,03,21,0.30
2007,05,07,03,22,0.40
2007,05,07,03,23,1.00
2007,05,07,03,24,1.20
2007,05,07,03,25,1.00
2007,05,07,03,26,0.80
2007,05,07,03,27,0.60
2007,05,07,03,28,1.60
2007,05,07,03,29,1.60
2007,05,07,03,30,1.60
2007,05,07,03,31,1.60
2007,05,07,03,32,2.10
2007,05,07,03,33,1.90
2007,05,07,03,34,1.60
2007,05,07,03,35,1.60
2007,05,07,03,36,0.80
2007,05,07,03,37,1.60
2007,05,07,03,38,0.60
2007,05,07,03,39,1.10
2007,05,07,03,40,3.80
2007,05,07,03,41,4.70
2007,05,07,03,42,3.20
2007,05,07,03,43,3.80
2007,05,07,03,44,4.20
2007,05,07,03,45,3.50
2007,05,07,03,46,4.40
2007,05,07,03,47,3.30
2007,05,07,03,48,2.00
2007,05,07,03,49,4.20
2007,05,07,03,50,5.00
2007,05,07,03,51,3.40
2007,05,07,03,52,1.00
2007,05,07,03,53,2.80
2007,05,07,03,54,0.70
2007,05,07,03,55,3.00
2007,05,07,03,56,4.60
2007,05,07,03,57,3.70
2007,05,07,03,58,1.30
2007,05,07,03,59,6.10
2007,05,07,04,00,2.90
2007,05,07,04,01,2.00
2007,05,07,04,02,2.30
2007,05,07,04,03,2.20
2007,05,07,04,04,1.50
2007,05,07,04,05,1.20
2007,05,07,04,06,2.40
2007,05,07,04,07,0.70
2007,05,07,04,08,1.00
2007,05,07,04,09,1.70
2007,05,07,04,10,0.80
2007,05,07,04,11,0.10
2007,05,07,04,12,0.10
2007,05,07,04,13,0.70
2007,05,07,04,14,1.40
2007,05,07,04,15,1.10
2007,05,07,04,16,0.70
2007,05,07,04,17,0.00
2007,05,07,04,18,0.00
2007,05,07,04,19,0.00
2007,05,07,04,20,0.00
2007,05,07,04,21,1.60
2007,05,07,04,22,0.80
2007,05,07,04,23,0.00
2007,05,07,04,24,0.10
2007,05,07,04,25,1.20
2007,05,07,04,26,0.20
2007,05,07,04,27,1.50
2007,05,07,04,28,1.00
2007,05,07,04,29,1.90
2007,05,07,04,30,1.50
2007,05,07,04,31,0.90
2007,05,07,04,32,0.50
2007,05,07,04,33,0.00
2007,05,07,04,34,0.10
2007,05,07,04,35,0.30
2007,05,07,04,36,1.60
2007,05,07,04,37,0.10
2007,05,07,04,38,0.50
2007,05,07,04,39,5.70
2007,05,07,04,40,2.10
2007,05,07,04,41,0.20
2007,05,07,04,42,0.00
2007,05,07,04,43,1.50
2007,05,07,04,44,0.50
2007,05,07,04,45,1.10
2007,05,07,04,46,2.50
2007,05,07,04,47,0.20
2007,05,07,04,48,0.80
2007,05,07,04,49,0.10
2007,05,07,04,50,1.90
2007,05,07,04,51,2.10
2007,05,07,04,52,2.70
2007,05,07,04,53,1.70
2007,05,07,04,54,4.20
2007,05,07,04,55,5.70
2007,05,07,04,56,3.70
2007,05,07,04,57,3.40
2007,05,07,04,58,3.20
2007,05,07,04,59,2.80
2007,05,07,05,00,4.20
2007,05,07,05,01,1.60
2007,05,07,05,02,0.00
2007,05,07,05,03,1.00
2007,05,07,05,04,4.00
2007,05,07,05,05,1.60
2007,05,07,05,06,1.40
2007,05,07,05,07,0.40
2007,05,07,05,08,3.40
2007,05,07,05,09,4.10
2007,05,07,05,10,2.20
2007,05,07,05,11,3.60
2007,05,07,05,12,6.00
2007,05,07,05,13,4.50
2007,05,07,05,14,5.50
2007,05,07,05,15,6.90
2007,05,07,05,16,5.60
2007,05,07,05,17,4.80
2007,05,07,05,18,4.80
2007,05,07,05,19,4.80
2007,05,07,05,20,4.80
2007,05,07,05,21,3.40
2007,05,07,05,22,2.30
2007,05,07,05,23,3.70
2007,05,07,05,24,2.90
2007,05,07,05,25,2.80
2007,05,07,05,26,2.50
2007,05,07,05,27,2.00
2007,05,07,05,28,3.30
2007,05,07,05,29,3.30
2007,05,07,05,30,4.80
2007,05,07,05,31,6.10
2007,05,07,05,32,5.10
2007,05,07,05,33,4.80
2007,05,07,05,34,2.30
2007,05,07,05,35,2.20
2007,05,07,05,36,2.90
2007,05,07,05,37,3.60
2007,05,07,05,38,4.10
2007,05,07,05,39,1.10
2007,05,07,05,40,1.20
2007,05,07,05,41,1.40
2007,05,07,05,42,1.60
2007,05,07,05,43,0.90
2007,05,07,05,44,1.60
2007,05,07,05,45,0.10
2007,05,07,05,46,0.80
2007,05,07,05,47,0.10
2007,05,07,05,48,2.20
2007,05,07,05,49,1.80
2007,05,07,05,50,0.10
2007,05,07,05,51,0.80
2007,05,07,05,52,0.40
2007,05,07,05,53,0.00
2007,05,07,05,54,0.10
2007,05,07,05,55,0.30
2007,05,07,05,56,3.50
2007,05,07,05,57,2.40
2007,05,07,05,58,3.80
2007,05,07,05,59,2.20
2007,05,07,06,00,4.60
2007,05,07,06,01,1.50
2007,05,07,06,02,2.30
2007,05,07,06,03,0.60
2007,05,07,06,04,1.70
2007,05,07,06,05,0.80
2007,05,07,06,06,0.40
2007,05,07,06,07,2.10
2007,05,07,06,08,1.10
2007,05,07,06,09,1.00
2007,05,07,06,10,1.70
2007,05,07,06,11,1.50
2007,05,07,06,12,0.50
2007,05,07,06,13,1.90
2007,05,07,06,14,3.20
2007,05,07,06,15,4.40
2007,05,07,06,16,1.10
2007,05,07,06,17,0.40
2007,05,07,06,18,2.50
2007,05,07,06,19,0.60
2007,05,07,06,20,0.80
2007,05,07,06,21,0.00
2007,05,07,06,22,1.50
2007,05,07,06,23,3.10
2007,05,07,06,24,4.50
2007,05,07,06,25,5.80
2007,05,07,06,26,4.50
2007,05,07,06,27,5.30
2007,05,07,06,28,2.20
2007,05,07,06,29,3.20
2007,05,07,06,30,5.00
2007,05,07,06,31,3.10
2007,05,07,06,32,1.90
2007,05,07,06,33,4.30
2007,05,07,06,34,4.80
2007,05,07,06,35,4.60
2007,05,07,06,36,2.50
2007,05,07,06,37,3.30
2007,05,07,06,38,6.10
2007,05,07,06,39,8.50
2007,05,07,06,40,6.10
2007,05,07,06,41,5.00
2007,05,07,06,42,6.30
2007,05,07,06,43,3.70
2007,05,07,06,44,4.90
2007,05,07,06,45,6.40
2007,05,07,06,46,4.80
2007,05,07,06,47,4.40
2007,05,07,06,48,6.40
2007,05,07,06,49,8.80
2007,05,07,06,50,10.10
2007,05,07,06,51,8.30
2007,05,07,06,52,5.40
2007,05,07,06,53,3.10
2007,05,07,06,54,8.10
2007,05,07,06,55,9.80
2007,05,07,06,56,10.20
2007,05,07,06,57,9.30
2007,05,07,06,58,5.00
2007,05,07,06,59,7.30
2007,05,07,07,00,6.40
2007,05,07,07,01,4.80
2007,05,07,07,02,2.60
2007,05,07,07,03,3.50
2007,05,07,07,04,2.30
2007,05,07,07,05,10.10
2007,05,07,07,06,10.90
2007,05,07,07,07,12.70
2007,05,07,07,08,11.60
2007,05,07,07,09,9.40
2007,05,07,07,10,7.70
2007,05,07,07,11,5.60
2007,05,07,07,12,13.30
2007,05,07,07,13,8.40
2007,05,07,07,14,9.70
2007,05,07,07,15,9.60
2007,05,07,07,16,9.10
2007,05,07,07,17,5.50
2007,05,07,07,18,5.00
2007,05,07,07,19,4.80
2007,05,07,07,20,7.50
2007,05,07,07,21,5.50
2007,05,07,07,22,4.00
2007,05,07,07,23,5.60
2007,05,07,07,24,7.00
2007,05,07,07,25,7.40
2007,05,07,07,26,6.60
2007,05,07,07,27,7.70
2007,05,07,07,28,8.60
2007,05,07,07,29,4.70
2007,05,07,07,30,2.90
2007,05,07,07,31,9.10
2007,05,07,07,32,6.40
2007,05,07,07,33,4.80
2007,05,07,07,34,3.10
2007,05,07,07,35,6.40
2007,05,07,07,36,8.90
2007,05,07,07,37,5.00
2007,05,07,07,38,4.20
2007,05,07,07,39,7.40
2007,05,07,07,40,6.40
2007,05,07,07,41,6.40
2007,05,07,07,42,6.50
2007,05,07,07,43,6.60
2007,05,07,07,44,3.90
2007,05,07,07,45,4.60
2007,05,07,07,46,3.50
2007,05,07,07,47,3.30
2007,05,07,07,48,3.40
2007,05,07,07,49,3.90
2007,05,07,07,50,2.90
2007,05,07,07,51,2.80
2007,05,07,07,52,1.30
2007,05,07,07,53,2.70
2007,05,07,07,54,6.30
2007,05,07,07,55,3.90
2007,05,07,07,56,3.40
2007,05,07,07,57,2.40
2007,05,07,07,58,1.20
2007,05,07,07,59,2.90
2007,05,07,08,00,3.30
2007,05,07,08,01,3.40
2007,05,07,08,02,1.70
2007,05,07,08,03,4.10
2007,05,07,08,04,5.30
2007,05,07,08,05,5.10
2007,05,07,08,06,3.50
2007,05,07,08,07,2.50
2007,05,07,08,08,4.30
2007,05,07,08,09,4.40
2007,05,07,08,10,2.20
2007,05,07,08,11,3.60
2007,05,07,08,12,2.20
2007,05,07,08,13,2.80
2007,05,07,08,14,5.20
2007,05,07,08,15,3.00
2007,05,07,08,16,4.60
2007,05,07,08,17,3.20
2007,05,07,08,18,1.30
2007,05,07,08,19,5.20
2007,05,07,08,20,2.30
2007,05,07,08,21,3.50
2007,05,07,08,22,5.50
2007,05,07,08,23,5.30
2007,05,07,08,24,5.00
2007,05,07,08,25,6.60
2007,05,07,08,26,3.10
2007,05,07,08,27,3.60
2007,05,07,08,28,2.60
2007,05,07,08,29,4.90
2007,05,07,08,30,4.80
2007,05,07,08,31,3.90
2007,05,07,08,32,4.20
2007,05,07,08,33,3.30
2007,05,07,08,34,4.10
2007,05,07,08,35,0.20
2007,05,07,08,36,3.40
2007,05,07,08,37,3.60
2007,05,07,08,38,5.00
2007,05,07,08,39,3.00
2007,05,07,08,40,4.40
2007,05,07,08,41,3.20
2007,05,07,08,42,2.90
2007,05,07,08,43,2.80
2007,05,07,08,44,5.70
2007,05,07,08,45,3.80
2007,05,07,08,46,5.20
2007,05,07,08,47,5.80
2007,05,07,08,48,3.60
2007,05,07,08,49,5.50
2007,05,07,08,50,5.30
2007,05,07,08,51,6.40
2007,05,07,08,52,6.40
2007,05,07,08,53,6.00
2007,05,07,08,54,1.70
2007,05,07,08,55,2.60
2007,05,07,08,56,3.40
2007,05,07,08,57,4.60
2007,05,07,08,58,5.30
2007,05,07,08,59,4.00
2007,05,07,09,00,5.10
2007,05,07,09,01,8.30
2007,05,07,09,02,7.60
2007,05,07,09,03,6.50
2007,05,07,09,04,2.10
2007,05,07,09,05,5.60
2007,05,07,09,06,6.70
2007,05,07,09,07,4.30
2007,05,07,09,08,5.80
2007,05,07,09,09,3.70
2007,05,07,09,10,4.80
2007,05,07,09,11,4.30
2007,05,07,09,12,3.70
2007,05,07,09,13,5.10
2007,05,07,09,14,3.80
2007,05,07,09,15,6.20
2007,05,07,09,16,3.40
2007,05,07,09,17,7.30
2007,05,07,09,18,8.10
2007,05,07,09,19,8.10
2007,05,07,09,20,4.80
2007,05,07,09,21,2.90
2007,05,07,09,22,6.60
2007,05,07,09,23,5.60
2007,05,07,09,24,4.60
2007,05,07,09,25,3.80
2007,05,07,09,26,6.20
2007,05,07,09,27,4.40
2007,05,07,09,28,4.00
2007,05,07,09,29,2.10
2007,05,07,09,30,5.20
2007,05,07,09,31,5.90
2007,05,07,09,32,4.10
2007,05,07,09,33,4.70
2007,05,07,09,34,2.90
2007,05,07,09,35,4.10
2007,05,07,09,36,4.80
2007,05,07,09,37,5.60
2007,05,07,09,38,6.60
2007,05,07,09,39,5.50
2007,05,07,09,40,6.40
2007,05,07,09,41,3.60
2007,05,07,09,42,6.30
2007,05,07,09,43,5.00
2007,05,07,09,44,5.00
2007,05,07,09,45,7.50
2007,05,07,09,46,7.30
2007,05,07,09,47,6.30
2007,05,07,09,48,3.40
2007,05,07,09,49,3.80
2007,05,07,09,50,6.00
2007,05,07,09,51,3.70
2007,05,07,09,52,3.20
2007,05,07,09,53,3.30
2007,05,07,09,54,4.10
2007,05,07,09,55,3.40
2007,05,07,09,56,5.30
2007,05,07,09,57,4.30
2007,05,07,09,58,3.60
2007,05,07,09,59,4.80
2007,05,07,10,00,5.80
2007,05,07,10,01,5.60
2007,05,07,10,02,7.80
2007,05,07,10,03,5.20
2007,05,07,10,04,5.40
2007,05,07,10,05,4.60
2007,05,07,10,06,3.70
2007,05,07,10,07,3.70
2007,05,07,10,08,3.80
2007,05,07,10,09,5.40
2007,05,07,10,10,8.00
2007,05,07,10,11,3.40
2007,05,07,10,12,2.90
2007,05,07,10,13,4.30
2007,05,07,10,14,4.40
2007,05,07,10,15,5.90
2007,05,07,10,16,4.10
2007,05,07,10,17,3.80
2007,05,07,10,18,6.60
2007,05,07,10,19,5.00
2007,05,07,10,20,5.90
2007,05,07,10,21,5.90
2007,05,07,10,22,6.20
2007,05,07,10,23,6.80
2007,05,07,10,24,4.10
2007,05,07,10,25,4.20
2007,05,07,10,26,5.30
2007,05,07,10,27,6.00
2007,05,07,10,28,5.70
2007,05,07,10,29,6.60
2007,05,07,10,30,5.00
2007,05,07,10,31,5.20
2007,05,07,10,32,4.00
2007,05,07,10,33,5.00
2007,05,07,10,34,2.60
2007,05,07,10,35,3.90
2007,05,07,10,36,4.60
2007,05,07,10,37,6.10
2007,05,07,10,38,4.80
2007,05,07,10,39,5.00
2007,05,07,10,40,4.80
2007,05,07,10,41,6.10
2007,05,07,10,42,4.40
2007,05,07,10,43,6.70
2007,05,07,10,44,4.40
2007,05,07,10,45,4.00
2007,05,07,10,46,1.30
2007,05,07,10,47,5.00
2007,05,07,10,48,8.10
2007,05,07,10,49,6.20
2007,05,07,10,50,4.80
2007,05,07,10,51,4.80
2007,05,07,10,52,4.40
2007,05,07,10,53,3.40
2007,05,07,10,54,1.70
2007,05,07,10,55,2.30
2007,05,07,10,56,5.60
2007,05,07,10,57,3.40
2007,05,07,10,58,0.70
2007,05,07,10,59,7.70
2007,05,07,11,00,6.90
2007,05,07,11,01,7.30
2007,05,07,11,02,4.40
2007,05,07,11,03,5.70
2007,05,07,11,04,7.80
2007,05,07,11,05,6.10
2007,05,07,11,06,4.80
2007,05,07,11,07,6.20
2007,05,07,11,08,8.50
2007,05,07,11,09,9.60
2007,05,07,11,10,4.60
2007,05,07,11,11,4.00
2007,05,07,11,12,8.20
2007,05,07,11,13,8.90
2007,05,07,11,14,7.10
2007,05,07,11,15,6.10
2007,05,07,11,16,0.80
2007,05,07,11,17,4.80
2007,05,07,11,18,7.40
2007,05,07,11,19,5.50
2007,05,07,11,20,3.40
2007,05,07,11,21,5.60
2007,05,07,11,22,4.90
2007,05,07,11,23,6.50
2007,05,07,11,24,6.40
2007,05,07,11,25,6.40
2007,05,07,11,26,7.20
2007,05,07,11,27,7.80
2007,05,07,11,28,8.80
2007,05,07,11,29,6.10
2007,05,07,11,30,8.50
2007,05,07,11,31,8.50
2007,05,07,11,32,8.30
2007,05,07,11,33,6.70
2007,05,07,11,34,7.80
2007,05,07,11,35,7.70
2007,05,07,11,36,8.10
2007,05,07,11,37,7.60
2007,05,07,11,38,4.70
2007,05,07,11,39,7.10
2007,05,07,11,40,8.10
2007,05,07,11,41,8.40
2007,05,07,11,42,8.00
2007,05,07,11,43,6.70
2007,05,07,11,44,8.30
2007,05,07,11,45,6.90
2007,05,07,11,46,7.60
2007,05,07,11,47,8.50
2007,05,07,11,48,10.40
2007,05,07,11,49,7.70
2007,05,07,11,50,6.90
2007,05,07,11,51,8.90
2007,05,07,11,52,9.70
2007,05,07,11,53,6.40
2007,05,07,11,54,4.70
2007,05,07,11,55,4.40
2007,05,07,11,56,2.20
2007,05,07,11,57,7.80
2007,05,07,11,58,7.30
2007,05,07,11,59,5.30
2007,05,07,12,00,5.70
2007,05,07,12,01,4.20
2007,05,07,12,02,3.10
2007,05,07,12,03,2.70
2007,05,07,12,04,5.10
2007,05,07,12,05,7.80
2007,05,07,12,06,4.10
2007,05,07,12,07,5.50
2007,05,07,12,08,8.40
2007,05,07,12,09,6.20
2007,05,07,12,10,6.10
2007,05,07,12,11,6.30
2007,05,07,12,12,7.70
2007,05,07,12,13,8.30
2007,05,07,12,14,4.60
2007,05,07,12,15,10.00
2007,05,07,12,16,6.40
2007,05,07,12,17,8.80
2007,05,07,12,18,8.20
2007,05,07,12,19,11.70
2007,05,07,12,20,6.80
2007,05,07,12,21,11.60
2007,05,07,12,22,7.40
2007,05,07,12,23,6.50
2007,05,07,12,24,9.10
2007,05,07,12,25,4.30
2007,05,07,12,26,8.80
2007,05,07,12,27,11.30
2007,05,07,12,28,10.20
2007,05,07,12,29,14.10
2007,05,07,12,30,9.50
2007,05,07,12,31,10.90
2007,05,07,12,32,8.70
2007,05,07,12,33,5.80
2007,05,07,12,34,3.70
2007,05,07,12,35,6.00
2007,05,07,12,36,6.60
2007,05,07,12,37,11.00
2007,05,07,12,38,10.80
2007,05,07,12,39,8.10
2007,05,07,12,40,9.90
2007,05,07,12,41,9.40
2007,05,07,12,42,5.90
2007,05,07,12,43,9.00
2007,05,07,12,44,10.80
2007,05,07,12,45,8.90
2007,05,07,12,46,10.00
2007,05,07,12,47,11.90
2007,05,07,12,48,12.20
2007,05,07,12,49,10.20
2007,05,07,12,50,11.50
2007,05,07,12,51,9.90
2007,05,07,12,52,15.00
2007,05,07,12,53,10.90
2007,05,07,12,54,6.40
2007,05,07,12,55,10.80
2007,05,07,12,56,9.10
2007,05,07,12,57,8.10
2007,05,07,12,58,7.10
2007,05,07,12,59,7.80
2007,05,07,13,00,11.60
2007,05,07,13,01,13.80
2007,05,07,13,02,11.70
2007,05,07,13,03,10.60
2007,05,07,13,04,6.50
2007,05,07,13,05,6.40
2007,05,07,13,06,7.00
2007,05,07,13,07,8.00
2007,05,07,13,08,8.50
2007,05,07,13,09,12.90
2007,05,07,13,10,17.90
2007,05,07,13,11,15.80
2007,05,07,13,12,14.80
2007,05,07,13,13,8.60
2007,05,07,13,14,15.20
2007,05,07,13,15,10.30
2007,05,07,13,16,9.30
2007,05,07,13,17,11.70
2007,05,07,13,18,9.00
2007,05,07,13,19,8.40
2007,05,07,13,20,12.90
2007,05,07,13,21,14.40
2007,05,07,13,22,16.90
2007,05,07,13,23,15.90
2007,05,07,13,24,15.40
2007,05,07,13,25,11.70
2007,05,07,13,26,8.60
2007,05,07,13,27,10.10
2007,05,07,13,28,9.60
2007,05,07,13,29,6.00
2007,05,07,13,30,7.20
2007,05,07,13,31,6.70
2007,05,07,13,32,9.70
2007,05,07,13,33,8.10
2007,05,07,13,34,8.00
2007,05,07,13,35,7.00
2007,05,07,13,36,8.50
2007,05,07,13,37,10.20
2007,05,07,13,38,8.50
2007,05,07,13,39,7.50
2007,05,07,13,40,6.40
2007,05,07,13,41,10.60
2007,05,07,13,42,15.60
2007,05,07,13,43,10.30
2007,05,07,13,44,9.00
2007,05,07,13,45,8.10
2007,05,07,13,46,8.70
2007,05,07,13,47,11.10
2007,05,07,13,48,6.00
2007,05,07,13,49,7.00
2007,05,07,13,50,5.40
2007,05,07,13,51,9.30
2007,05,07,13,52,6.10
2007,05,07,13,53,9.90
2007,05,07,13,54,12.60
2007,05,07,13,55,12.00
2007,05,07,13,56,8.20
2007,05,07,13,57,10.30
2007,05,07,13,58,10.70
2007,05,07,13,59,6.90
2007,05,07,14,00,9.90
2007,05,07,14,01,10.50
2007,05,07,14,02,9.00
2007,05,07,14,03,4.60
2007,05,07,14,04,10.20
2007,05,07,14,05,10.00
2007,05,07,14,06,11.50
2007,05,07,14,07,12.30
2007,05,07,14,08,14.10
2007,05,07,14,09,7.10
2007,05,07,14,10,9.30
2007,05,07,14,11,10.90
2007,05,07,14,12,10.10
2007,05,07,14,13,9.80
2007,05,07,14,14,8.30
2007,05,07,14,15,10.00
2007,05,07,14,16,9.10
2007,05,07,14,17,10.70
2007,05,07,14,18,8.00
2007,05,07,14,19,8.10
2007,05,07,14,20,12.30
2007,05,07,14,21,11.60
2007,05,07,14,22,12.00
2007,05,07,14,23,12.90
2007,05,07,14,24,11.00
2007,05,07,14,25,8.50
2007,05,07,14,26,7.20
2007,05,07,14,27,12.40
2007,05,07,14,28,11.90
2007,05,07,14,29,10.80
2007,05,07,14,30,9.00
2007,05,07,14,31,10.20
2007,05,07,14,32,8.40
2007,05,07,14,33,11.90
2007,05,07,14,34,9.40
2007,05,07,14,35,8.20
2007,05,07,14,36,12.70
2007,05,07,14,37,13.20
2007,05,07,14,38,8.70
2007,05,07,14,39,5.20
2007,05,07,14,40,9.00
2007,05,07,14,41,10.80
2007,05,07,14,42,12.50
2007,05,07,14,43,11.70
2007,05,07,14,44,9.40
2007,05,07,14,45,13.10
2007,05,07,14,46,15.20
2007,05,07,14,47,20.90
2007,05,07,14,48,15.60
2007,05,07,14,49,16.40
2007,05,07,14,50,10.90
2007,05,07,14,51,5.80
2007,05,07,14,52,9.40
2007,05,07,14,53,9.80
2007,05,07,14,54,7.90
2007,05,07,14,55,7.20
2007,05,07,14,56,5.90
2007,05,07,14,57,11.20
2007,05,07,14,58,11.30
2007,05,07,14,59,10.20
2007,05,07,15,00,9.70
2007,05,07,15,01,8.50
2007,05,07,15,02,9.70
2007,05,07,15,03,9.60
2007,05,07,15,04,7.30
2007,05,07,15,05,7.30
2007,05,07,15,06,5.40
2007,05,07,15,07,5.40
2007,05,07,15,08,11.00
2007,05,07,15,09,10.60
2007,05,07,15,10,9.30
2007,05,07,15,11,9.70
2007,05,07,15,12,8.10
2007,05,07,15,13,9.00
2007,05,07,15,14,6.40
2007,05,07,15,15,4.30
2007,05,07,15,16,8.20
2007,05,07,15,17,7.30
2007,05,07,15,18,6.40
2007,05,07,15,19,5.00
2007,05,07,15,20,3.00
2007,05,07,15,21,6.60
2007,05,07,15,22,5.60
2007,05,07,15,23,2.40
2007,05,07,15,24,6.90
2007,05,07,15,25,4.10
2007,05,07,15,26,5.20
2007,05,07,15,27,8.60
2007,05,07,15,28,4.70
2007,05,07,15,29,1.50
2007,05,07,15,30,1.60
2007,05,07,15,31,1.60
2007,05,07,15,32,1.60
2007,05,07,15,33,4.90
2007,05,07,15,34,5.60
2007,05,07,15,35,8.40
2007,05,07,15,36,4.80
2007,05,07,15,37,3.90
2007,05,07,15,38,5.20
2007,05,07,15,39,6.30
2007,05,07,15,40,6.50
2007,05,07,15,41,5.80
2007,05,07,15,42,6.10
2007,05,07,15,43,9.10
2007,05,07,15,44,4.30
2007,05,07,15,45,2.60
2007,05,07,15,46,3.30
2007,05,07,15,47,7.10
2007,05,07,15,48,3.80
2007,05,07,15,49,5.20
2007,05,07,15,50,5.00
2007,05,07,15,51,7.70
2007,05,07,15,52,6.20
2007,05,07,15,53,4.90
2007,05,07,15,54,2.40
2007,05,07,15,55,3.10
2007,05,07,15,56,2.30
2007,05,07,15,57,6.50
2007,05,07,15,58,5.00
2007,05,07,15,59,6.50
2007,05,07,16,00,4.60
2007,05,07,16,01,6.80
2007,05,07,16,02,5.30
2007,05,07,16,03,10.60
2007,05,07,16,04,11.10
2007,05,07,16,05,8.40
2007,05,07,16,06,6.90
2007,05,07,16,07,4.10
2007,05,07,16,08,4.80
2007,05,07,16,09,7.40
2007,05,07,16,10,8.10
2007,05,07,16,11,9.20
2007,05,07,16,12,12.10
2007,05,07,16,13,11.40
2007,05,07,16,14,7.80
2007,05,07,16,15,9.40
2007,05,07,16,16,11.20
2007,05,07,16,17,11.30
2007,05,07,16,18,10.10
2007,05,07,16,19,7.90
2007,05,07,16,20,7.70
2007,05,07,16,21,6.30
2007,05,07,16,22,16.70
2007,05,07,16,23,7.50
2007,05,07,16,24,9.80
2007,05,07,16,25,11.40
2007,05,07,16,26,14.60
2007,05,07,16,27,18.50
2007,05,07,16,28,20.60
2007,05,07,16,29,19.50
2007,05,07,16,30,15.20
2007,05,07,16,31,16.40
2007,05,07,16,32,14.10
2007,05,07,16,33,16.30
2007,05,07,16,34,18.20
2007,05,07,16,35,16.00
2007,05,07,16,36,15.90
2007,05,07,16,37,15.10
2007,05,07,16,38,19.30
2007,05,07,16,39,12.50
2007,05,07,16,40,11.60
2007,05,07,16,41,11.40
2007,05,07,16,42,13.80
2007,05,07,16,43,10.70
2007,05,07,16,44,10.90
2007,05,07,16,45,9.70
2007,05,07,16,46,13.40
2007,05,07,16,47,11.80
2007,05,07,16,48,17.60
2007,05,07,16,49,10.30
2007,05,07,16,50,7.60
2007,05,07,16,51,8.10
2007,05,07,16,52,15.50
2007,05,07,16,53,11.30
2007,05,07,16,54,12.20
2007,05,07,16,55,18.40
2007,05,07,16,56,16.20
2007,05,07,16,57,10.80
2007,05,07,16,58,7.90
2007,05,07,16,59,7.80
2007,05,07,17,00,10.30
2007,05,07,17,01,11.30
2007,05,07,17,02,12.60
2007,05,07,17,03,13.30
2007,05,07,17,04,12.00
2007,05,07,17,05,8.10
2007,05,07,17,06,13.40
2007,05,07,17,07,7.10
2007,05,07,17,08,8.40
2007,05,07,17,09,6.90
2007,05,07,17,10,9.70
2007,05,07,17,11,5.60
2007,05,07,17,12,12.20
2007,05,07,17,13,13.80
2007,05,07,17,14,13.00
2007,05,07,17,15,9.40
2007,05,07,17,16,7.60
2007,05,07,17,17,8.70
2007,05,07,17,18,7.50
2007,05,07,17,19,9.70
2007,05,07,17,20,10.30
2007,05,07,17,21,6.70
2007,05,07,17,22,6.20
2007,05,07,17,23,7.10
2007,05,07,17,24,8.90
2007,05,07,17,25,7.00
2007,05,07,17,26,7.80
2007,05,07,17,27,8.60
2007,05,07,17,28,5.60
2007,05,07,17,29,6.50
2007,05,07,17,30,7.50
2007,05,07,17,31,6.70
2007,05,07,17,32,11.10
2007,05,07,17,33,6.30
2007,05,07,17,34,13.60
2007,05,07,17,35,14.20
2007,05,07,17,36,16.90
2007,05,07,17,37,18.10
2007,05,07,17,38,11.50
2007,05,07,17,39,14.50
2007,05,07,17,40,14.50
2007,05,07,17,41,14.90
2007,05,07,17,42,19.00
2007,05,07,17,43,10.70
2007,05,07,17,44,14.00
2007,05,07,17,45,15.80
2007,05,07,17,46,18.20
2007,05,07,17,47,14.80
2007,05,07,17,48,13.80
2007,05,07,17,49,14.20
2007,05,07,17,50,14.30
2007,05,07,17,51,10.40
2007,05,07,17,52,13.50
2007,05,07,17,53,12.80
2007,05,07,17,54,13.60
2007,05,07,17,55,11.30
2007,05,07,17,56,11.50
2007,05,07,17,57,9.00
2007,05,07,17,58,6.90
2007,05,07,17,59,6.20